Wind_Speed
38 35 34 35 37 36 35 31 27 29 28 28 27 27 23 22 17 15 21 26 25 23 21 22 23 22 25 27 29 27 25 22
39 38 37 36 34 36 35 33 35 34 31 30 26 21 27 25 18 17 23 21 20 22 23 24 26 27 28 29 30 32 28 27
39 40 39 39 38 37 35 33 34 32 33 31 29 26 26 28 25 20 23 20 23 25 26 28 29 29 30 29 29 34 32 28
36 39 40 40 39 39 38 37 36 33 30 28 28 28 28 31 31 26 23 27 18 19 26 30 30 28 27 30 30 31 35 34
33 34 37 40 41 40 40 39 39 36 34 30 28 29 29 32 34 34 32 30 29 23 25 26 29 30 29 29 29 33 33 36
32 32 32 35 37 38 39 40 38 39 35 33 32 32 31 31 33 35 37 35 36 34 30 30 30 32 32 30 29 29 35 36
36 38 39 40 39 40 40 41 41 41 40 38 37 36 35 36 35 35 35 36 36 36 40 38 35 34 35 35 34 30 30 35
39 39 39 39 39 39 39 40 42 42 40 40 39 39 39 39 38 39 38 38 36 37 37 45 43 41 40 39 36 36 42 36
34 35 35 35 35 36 38 38 39 40 40 40 40 40 40 40 43 44 43 43 43 42 41 45 48 48 45 44 45 46 51 43
30 32 35 34 35 37 39 41 41 41 42 42 41 41 42 42 42 44 47 48 48 46 46 47 49 50 49 48 47 48 43 41
27 29 31 31 30 31 32 34 37 40 44 46 47 47 47 47 48 48 48 51 54 54 52 52 52 53 54 53 49 47 48 42
30 30 30 30 31 32 32 33 34 36 38 40 42 46 51 54 54 55 55 54 56 63 61 59 58 58 57 57 58 57 53 51
34 36 37 36 35 34 35 34 37 39 40 42 44 47 50 54 56 57 60 62 61 62 65 71 67 65 64 61 61 63 61 58
29 32 35 35 34 35 33 34 35 37 39 42 47 50 52 57 60 62 63 63 66 67 67 67 72 75 72 67 64 64 65 63
24 25 27 30 32 31 32 33 33 35 36 37 37 39 43 45 59 67 69 70 71 71 72 73 73 72 78 76 71 69 67 66
16 17 20 22 24 26 28 32 36 39 41 41 42 42 40 40 40 44 64 78 77 78 77 75 77 78 76 80 79 75 73 69
7 8 10 11 13 15 17 17 19 20 21 26 27 31 36 40 42 44 46 51 69 84 84 83 81 80 82 81 82 82 79 76
18 17 15 15 17 18 19 20 21 23 22 20 20 22 25 27 30 35 43 49 53 54 76 90 88 85 83 85 85 82 84 82
25 28 27 26 25 27 29 29 29 30 31 30 30 29 30 31 33 35 33 37 46 52 53 62 86 94 90 87 87 87 85 86
Wind_Direction
208 206 206 209 213 218 221 220 222 219 215 211 214 217 227 229 200 196 205 208 207 194 196 205 203 201 198 201 203 206 213 214
208 207 207 210 211 214 220 220 219 221 221 220 219 213 190 195 187 186 196 212 215 205 196 201 204 206 206 203 202 205 208 212
208 209 207 209 211 212 219 222 224 224 228 226 220 217 211 203 201 188 194 189 210 214 212 203 206 212 210 211 207 207 209 211
212 212 210 210 211 214 219 223 226 224 224 227 227 225 214 210 210 207 206 203 211 217 220 217 209 211 216 217 212 212 215 217
217 218 216 215 214 216 219 224 227 232 229 227 226 227 225 221 224 227 224 216 212 219 234 233 226 226 219 219 223 217 218 220
216 220 223 220 220 219 221 226 229 233 232 231 229 227 227 227 227 225 225 229 229 227 227 238 230 223 233 232 227 224 223 221
215 216 218 221 222 221 222 225 230 234 235 232 232 231 230 229 230 234 232 232 229 236 234 227 233 228 230 235 234 226 233 227
221 222 223 224 228 229 229 229 232 235 238 239 236 232 231 231 230 229 233 236 235 233 233 222 227 226 230 228 228 229 232 232
233 234 234 233 234 235 238 238 236 237 239 241 242 241 237 231 230 230 227 229 233 234 230 228 227 230 234 233 233 232 240 225
226 228 231 232 234 236 237 239 240 242 243 243 245 247 246 241 235 232 230 229 229 231 231 227 229 232 234 236 238 241 248 241
226 223 225 224 224 228 234 236 239 242 244 245 247 247 248 248 243 238 232 232 231 231 231 231 230 231 233 236 237 239 241 245
232 231 231 229 229 229 232 238 240 241 243 247 248 250 250 250 248 244 239 233 232 231 231 233 233 232 231 234 237 240 239 239
241 238 239 241 242 243 242 242 242 245 248 250 253 253 254 254 254 251 247 241 237 233 231 231 234 235 235 234 233 238 242 243
249 245 241 240 243 244 241 243 246 252 255 256 256 257 256 255 255 253 251 249 245 239 236 233 232 234 237 236 234 234 237 241
247 245 240 234 234 234 240 243 245 250 260 260 259 261 262 266 258 253 250 248 248 244 241 239 235 232 232 235 236 237 236 237
245 234 228 226 230 236 249 258 263 263 268 265 264 263 264 264 268 267 252 243 244 245 243 242 242 235 232 232 233 236 237 235
263 238 222 223 230 237 251 257 266 266 264 262 264 264 264 265 265 264 265 263 251 242 241 242 242 243 236 231 232 231 234 235
272 263 263 264 265 263 265 274 277 278 277 271 268 273 280 282 275 272 269 265 261 258 247 240 241 241 241 237 230 231 231 233
263 267 264 264 269 270 271 272 273 274 273 273 272 274 279 279 282 283 294 274 259 258 259 249 241 240 240 240 237 231 230 232
Height
5812 5820 5826 5830 5835 5841 5846 5854 5859 5862 5867 5871 5874 5879 5882 5884 5888 5890 5894 5896 5897 5899 5904 5908 5910 5913 5915 5918 5921 5925 5929 5933
5806 5814 5819 5824 5831 5835 5839 5847 5851 5854 5860 5864 5870 5875 5878 5882 5885 5888 5891 5895 5898 5899 5900 5903 5906 5909 5912 5913 5917 5921 5925 5929
5801 5805 5813 5819 5824 5830 5835 5841 5845 5851 5855 5860 5866 5871 5876 5880 5883 5886 5888 5890 5894 5896 5898 5899 5902 5905 5908 5912 5915 5918 5922 5926
5795 5800 5806 5812 5818 5824 5829 5835 5838 5844 5851 5855 5861 5866 5872 5876 5880 5883 5886 5888 5890 5893 5896 5898 5899 5902 5906 5908 5911 5914 5917 5922
5790 5796 5802 5807 5812 5818 5823 5828 5831 5837 5844 5850 5855 5859 5864 5870 5874 5879 5882 5885 5887 5890 5892 5896 5899 5900 5902 5904 5907 5909 5912 5916
5785 5790 5796 5802 5807 5812 5817 5821 5826 5829 5836 5842 5847 5851 5856 5861 5865 5870 5875 5879 5882 5885 5888 5890 5893 5896 5899 5901 5903 5905 5908 5912
5776 5781 5786 5791 5797 5803 5808 5813 5816 5820 5826 5832 5838 5843 5847 5851 5856 5860 5865 5868 5873 5877 5882 5884 5886 5890 5894 5897 5900 5901 5905 5907
5769 5773 5779 5784 5789 5795 5800 5805 5809 5812 5816 5821 5827 5832 5838 5842 5846 5850 5855 5859 5863 5867 5871 5876 5879 5883 5887 5890 5893 5896 5898 5902
5765 5769 5773 5778 5782 5787 5790 5794 5799 5803 5806 5810 5815 5820 5825 5831 5835 5838 5842 5847 5852 5857 5861 5865 5869 5874 5878 5881 5884 5886 5887 5890
5758 5761 5765 5770 5774 5777 5781 5784 5788 5792 5796 5800 5804 5808 5812 5817 5823 5828 5832 5835 5839 5844 5849 5854 5859 5864 5868 5872 5875 5878 5878 5882
5751 5755 5759 5763 5767 5769 5771 5775 5779 5781 5784 5788 5792 5796 5799 5803 5809 5815 5820 5824 5828 5832 5836 5840 5846 5851 5856 5862 5865 5868 5871 5875
5745 5748 5750 5753 5758 5761 5764 5767 5770 5772 5775 5778 5782 5784 5786 5790 5795 5799 5805 5809 5813 5819 5823 5827 5831 5837 5842 5848 5853 5856 5861 5865
5735 5738 5741 5744 5748 5751 5755 5761 5759 5762 5765 5768 5770 5773 5775 5776 5779 5784 5788 5793 5797 5801 5807 5813 5817 5821 5826 5832 5837 5842 5847 5851
5725 5728 5733 5735 5738 5742 5744 5744 5748 5750 5753 5755 5757 5757 5759 5762 5764 5766 5770 5775 5779 5785 5789 5794 5800 5805 5809 5816 5821 5826 5831 5835
5719 5721 5723 5726 5729 5732 5734 5736 5738 5740 5741 5742 5744 5744 5744 5744 5745 5746 5749 5754 5758 5764 5770 5774 5780 5786 5792 5797 5804 5810 5815 5821
5712 5713 5716 5719 5722 5724 5726 5727 5727 5728 5730 5731 5732 5731 5730 5730 5728 5726 5727 5730 5736 5741 5747 5754 5755 5763 5771 5777 5786 5792 5797 5804
5708 5709 5710 5712 5714 5715 5716 5716 5716 5716 5716 5717 5718 5717 5718 5716 5715 5713 5712 5710 5713 5717 5724 5729 5734 5739 5747 5755 5764 5772 5778 5786
5701 5702 5704 5705 5707 5708 5708 5708 5709 5708 5708 5708 5707 5707 5707 5705 5702 5700 5698 5695 5695 5694 5698 5705 5710 5717 5722 5730 5741 5750 5758 5765
5694 5694 5696 5697 5698 5698 5699 5699 5699 5698 5698 5698 5698 5697 5696 5695 5692 5689 5684 5678 5677 5677 5677 5679 5687 5693 5697 5705 5716 5726 5736 5744